Home   Weather   Angers   Past weeks

Flag for France Past Weather in Angers, Pays de la Loire, France — Yesterday and Last 2 Weeks

Now
28 °F

Sunny.


Feels Like: 18 °F
Forecast: 22 / 33 °F
Wind: 13 mph from Northeast

Location: Le Mans Airport

Current Time: Jan 18, 2017 at 11:15:39 am

Latest Report: Jan 18, 2017 at 10:30 am


Visibility: 10 mi

Pressure: 30.51 "Hg

Humidity: 69%

Dew Point: 19 °F

Location of AngersLocation

Past Weather in Angers — Graph

°F

Angers Temperature Yesterday

Maximum temperature yesterday: 39 °F (at 3:00 pm)
Minimum temperature yesterday: 28 °F (at 3:00 am)
Average temperature yesterday: 33 °F

High & Low Weather Summary for the Past Weeks

 TemperatureHumidityPressure
High57 °F (Jan 11, 3:00 pm)100% (Jan 3, 11:00 am)30.69 "Hg (Jan 3, 11:00 am)
Low23 °F (Jan 7, 1:30 am)48% (Jan 17, 3:00 pm)29.47 "Hg (Jan 12, 6:00 pm)
Average39 °F86%30.30 "Hg
* Reported Jan 3 10:00 am — Jan 18 10:00 am, Angers, Weather by CustomWeather, © 2017

Note: Actual official high and low records may vary slightly from our data, if they occured in-between our weather recording intervals... More about our weather records

Advertising

Angers Weather History for the Previous 24 Hours

Scroll right to see more
 ConditionsComfort  
Time TempWeatherWind HumidityBarometerVisibility
10:00 am
Wed, Jan 18
28 °FSunny.13 mph69%30.51 "Hg10 mi
9:30 am27 °FSunny.12 mph74%30.51 "Hg10 mi
9:00 am27 °FSunny.10 mph74%30.51 "Hg10 mi
8:30 am27 °FClear.10 mph74%30.51 "Hg10 mi
8:00 am27 °FClear.10 mph74%30.51 "Hg10 mi
7:30 am27 °FClear.9 mph74%30.51 "Hg10 mi
7:00 am27 °FClear.13 mph74%30.51 "Hg10 mi
6:30 am27 °FClear.13 mph74%30.51 "Hg10 mi
6:00 am27 °FClear.14 mph74%30.51 "Hg10 mi
5:30 am27 °FClear.12 mph74%30.51 "Hg10 mi
5:00 am27 °FClear.13 mph74%30.51 "Hg10 mi
4:30 am27 °FClear.10 mph80%30.51 "Hg10 mi
4:00 am27 °FClear.10 mph80%30.54 "Hg10 mi
3:30 am27 °FClear.9 mph80%30.54 "Hg10 mi
3:00 am28 °FClear.12 mph74%30.54 "Hg10 mi
2:30 am28 °FClear.10 mph74%30.54 "Hg10 mi
2:00 am27 °FClear.9 mph80%30.54 "Hg10 mi
1:30 am28 °FClear.8 mph74%30.54 "Hg6 mi
1:00 am28 °FClear.9 mph74%30.54 "Hg6 mi
12:30 am28 °FClear.9 mph74%30.54 "Hg6 mi
12:00 am28 °FClear.9 mph74%30.54 "Hg6 mi
11:30 pm
Tue, Jan 17
28 °FClear.8 mph74%30.54 "Hg5 mi
11:00 pm30 °FPassing clouds.14 mph69%30.54 "Hg6 mi
10:30 pm30 °FPassing clouds.10 mph75%30.54 "Hg6 mi
10:00 pm30 °FClear.13 mph75%30.54 "Hg10 mi
9:30 pm30 °FClear.9 mph75%30.54 "Hg10 mi
9:00 pm30 °FPassing clouds.5 mph75%30.54 "HgN/A
8:30 pm32 °FClear.7 mph69%30.54 "Hg10 mi
8:00 pm32 °FClear.10 mph69%30.54 "Hg10 mi
7:30 pm34 °FPassing clouds.10 mph65%30.51 "HgN/A
7:00 pm34 °FClear.10 mph65%30.51 "Hg10 mi
6:30 pm36 °FClear.10 mph56%30.51 "Hg10 mi
6:00 pm36 °FClear.10 mph60%30.51 "Hg10 mi
5:30 pm36 °FPassing clouds.10 mph56%30.51 "HgN/A
5:00 pm37 °FSunny.12 mph52%30.51 "Hg10 mi
4:30 pm39 °FPassing clouds.9 mph48%30.51 "HgN/A
4:00 pm39 °FPassing clouds.10 mph52%30.51 "HgN/A
3:30 pm39 °FPassing clouds.9 mph52%30.51 "HgN/A
3:00 pm39 °FPassing clouds.12 mph48%30.51 "HgN/A
2:30 pm37 °FSunny.12 mph52%30.51 "Hg10 mi
2:00 pm37 °FSunny.9 mph56%30.51 "Hg10 mi
1:30 pm37 °FPassing clouds.9 mph56%30.54 "HgN/A
1:00 pm36 °FSunny.10 mph60%30.54 "Hg10 mi
12:30 pm34 °FSunny.10 mph70%30.54 "Hg10 mi
12:00 pm34 °FSunny.10 mph75%30.54 "Hg10 mi
11:30 am34 °FSunny.9 mph75%30.54 "Hg10 mi
11:00 am32 °FSunny.10 mph80%30.54 "Hg10 mi
Weather by CustomWeather, © 2017

See weather overviewHow to use our weather pages